When you browse on this site, cookies collect data to enhance your experience and personalize the content and advertising you see.
Visit our Privacy Policy to learn more. By continuing to use the site, you agree to this use of cookies and data.
  • în România
  • Lista ţărilor
  • Pe 7 zile
  • Temperatura apei
  • Meteo pe hartă
  • Widget-uri
  • user-avatar
    Intrare

    Meteo pe oră la Skuratovo

    Astăzi, 5 Iunie, Vineri

    Timp Temperatura Precipitaţii Vânt Presiune Umiditate
    00:00 +9°C° 0 mm 2 m/s 730 mmHg 96%
    01:00 +8°C° 0 mm 2 m/s 731 mmHg 97%
    02:00 +8°C° 0 mm 2 m/s 731 mmHg 97%
    03:00 +8°C° 0 mm 3 m/s 731 mmHg 96%
    04:00 +9°C° 0 mm 3 m/s 731 mmHg 96%
    05:00 +9°C° 0 mm 3 m/s 731 mmHg 95%
    06:00 +10°C° 0 mm 3 m/s 731 mmHg 89%
    07:00 +12°C° 0 mm 3 m/s 731 mmHg 83%
    08:00 +13°C° 0 mm 3 m/s 732 mmHg 77%
    09:00 +16°C° 0 mm 3 m/s 732 mmHg 68%
    10:00 +18°C° 0 mm 3 m/s 732 mmHg 59%
    11:00 +19°C° 0 mm 3 m/s 732 mmHg 50%
    12:00 +19°C° 0.1 mm 3 m/s 732 mmHg 50%
    13:00 +20°C° 0.1 mm 3 m/s 732 mmHg 49%
    14:00 +20°C° 0.1 mm 3 m/s 732 mmHg 48%
    15:00 +20°C° 0 mm 2 m/s 732 mmHg 50%
    16:00 +20°C° 0 mm 2 m/s 732 mmHg 52%
    17:00 +20°C° 0 mm 2 m/s 732 mmHg 53%
    18:00 +18°C° 0 mm 2 m/s 733 mmHg 61%
    19:00 +17°C° 0 mm 2 m/s 733 mmHg 69%
    20:00 +15°C° 0 mm 2 m/s 733 mmHg 77%
    21:00 +14°C° 0 mm 2 m/s 733 mmHg 81%
    22:00 +13°C° 0 mm 2 m/s 733 mmHg 86%
    23:00 +12°C° 0 mm 2 m/s 734 mmHg 91%

    Mâine, 6 Iunie, Sâmbătă

    Timp Temperatura Precipitaţii Vânt Presiune Umiditate
    00:00 +12°C° 0 mm 2 m/s 734 mmHg 91%
    01:00 +10°C° 0 mm 3 m/s 734 mmHg 92%
    02:00 +10°C° 0 mm 3 m/s 734 mmHg 93%
    03:00 +11°C° 0 mm 3 m/s 734 mmHg 91%
    04:00 +12°C° 0 mm 4 m/s 733 mmHg 88%
    05:00 +12°C° 0 mm 4 m/s 733 mmHg 85%
    06:00 +14°C° 0 mm 5 m/s 733 mmHg 81%
    07:00 +16°C° 0 mm 5 m/s 733 mmHg 77%
    08:00 +19°C° 0 mm 5 m/s 733 mmHg 73%
    09:00 +19°C° 0.2 mm 5 m/s 733 mmHg 75%
    10:00 +20°C° 0.2 mm 5 m/s 733 mmHg 77%
    11:00 +20°C° 0.2 mm 6 m/s 733 mmHg 79%
    12:00 +19°C° 0.9 mm 5 m/s 733 mmHg 83%
    13:00 +19°C° 0.9 mm 5 m/s 734 mmHg 87%
    14:00 +17°C° 0.9 mm 5 m/s 734 mmHg 91%
    15:00 +19°C° 0.1 mm 4 m/s 734 mmHg 82%
    16:00 +20°C° 0.1 mm 4 m/s 734 mmHg 74%
    17:00 +22°C° 0.1 mm 4 m/s 735 mmHg 65%
    18:00 +20°C° 0.1 mm 3 m/s 735 mmHg 72%
    19:00 +18°C° 0.1 mm 2 m/s 736 mmHg 79%
    20:00 +17°C° 0.1 mm 2 m/s 736 mmHg 86%
    21:00 +15°C° 0 mm 2 m/s 737 mmHg 89%
    22:00 +14°C° 0 mm 2 m/s 738 mmHg 92%
    23:00 +13°C° 0 mm 2 m/s 738 mmHg 95%

    Poimâine, 7 Iunie, Duminică

    Timp Temperatura Precipitaţii Vânt Presiune Umiditate
    00:00 +12°C° 0 mm 1 m/s 739 mmHg 95%
    01:00 +12°C° 0 mm 1 m/s 740 mmHg 96%
    02:00 +11°C° 0 mm 1 m/s 740 mmHg 96%
    03:00 +12°C° 0 mm 1 m/s 741 mmHg 94%
    04:00 +12°C° 0 mm 1 m/s 741 mmHg 93%
    05:00 +13°C° 0 mm 2 m/s 741 mmHg 92%
    06:00 +15°C° 0 mm 2 m/s 742 mmHg 84%
    07:00 +17°C° 0 mm 2 m/s 742 mmHg 75%
    08:00 +19°C° 0 mm 3 m/s 742 mmHg 67%
    09:00 +21°C° 0 mm 3 m/s 743 mmHg 61%
    10:00 +23°C° 0 mm 2 m/s 743 mmHg 56%
    11:00 +25°C° 0 mm 2 m/s 743 mmHg 50%
    12:00 +25°C° 0 mm 3 m/s 743 mmHg 48%
    13:00 +26°C° 0 mm 3 m/s 743 mmHg 46%
    14:00 +27°C° 0 mm 3 m/s 743 mmHg 44%
    15:00 +27°C° 0 mm 3 m/s 742 mmHg 47%
    16:00 +26°C° 0 mm 3 m/s 742 mmHg 50%
    17:00 +26°C° 0 mm 2 m/s 742 mmHg 53%
    18:00 +25°C° 0 mm 3 m/s 742 mmHg 60%
    19:00 +22°C° 0 mm 3 m/s 741 mmHg 67%
    20:00 +21°C° 0 mm 3 m/s 741 mmHg 74%
    21:00 +20°C° 0 mm 3 m/s 741 mmHg 78%
    22:00 +20°C° 0 mm 4 m/s 741 mmHg 81%
    23:00 +19°C° 0 mm 4 m/s 742 mmHg 85%

    8 Iunie, Luni

    Timp Temperatura Precipitaţii Vânt Presiune Umiditate
    00:00 +19°C° 0 mm 3 m/s 742 mmHg 89%
    01:00 +19°C° 0 mm 3 m/s 741 mmHg 92%
    02:00 +18°C° 0 mm 3 m/s 741 mmHg 96%
    03:00 +18°C° 0 mm 3 m/s 741 mmHg 95%
    04:00 +18°C° 0 mm 3 m/s 741 mmHg 93%
    05:00 +18°C° 0 mm 3 m/s 741 mmHg 92%
    06:00 +20°C° 0 mm 3 m/s 742 mmHg 86%
    07:00 +21°C° 0 mm 3 m/s 742 mmHg 79%
    08:00 +22°C° 0 mm 3 m/s 742 mmHg 73%
    09:00 +25°C° 0 mm 3 m/s 742 mmHg 65%
    10:00 +27°C° 0 mm 4 m/s 743 mmHg 57%
    11:00 +28°C° 0 mm 4 m/s 743 mmHg 50%
    12:00 +29°C° 0 mm 4 m/s 743 mmHg 47%
    13:00 +29°C° 0 mm 4 m/s 742 mmHg 44%
    14:00 +30°C° 0 mm 4 m/s 742 mmHg 41%
    15:00 +29°C° 0 mm 3 m/s 742 mmHg 44%
    16:00 +29°C° 0 mm 3 m/s 742 mmHg 46%
    17:00 +28°C° 0 mm 3 m/s 742 mmHg 49%
    18:00 +26°C° 0 mm 2 m/s 742 mmHg 59%
    19:00 +25°C° 0 mm 2 m/s 742 mmHg 68%
    20:00 +23°C° 0 mm 1 m/s 742 mmHg 78%
    21:00 +21°C° 0 mm 2 m/s 742 mmHg 82%
    22:00 +20°C° 0 mm 2 m/s 742 mmHg 86%
    23:00 +19°C° 0 mm 2 m/s 743 mmHg 90%

    9 Iunie, Marţi

    Timp Temperatura Precipitaţii Vânt Presiune Umiditate
    00:00 +18°C° 0 mm 2 m/s 743 mmHg 92%
    01:00 +18°C° 0 mm 2 m/s 743 mmHg 94%
    02:00 +18°C° 0 mm 2 m/s 743 mmHg 96%
    03:00 +18°C° 0 mm 2 m/s 743 mmHg 94%
    04:00 +18°C° 0 mm 2 m/s 743 mmHg 92%
    05:00 +19°C° 0 mm 2 m/s 743 mmHg 90%
    06:00 +21°C° 0 mm 2 m/s 743 mmHg 83%
    07:00 +24°C° 0 mm 2 m/s 743 mmHg 75%
    08:00 +25°C° 0 mm 2 m/s 744 mmHg 68%
    09:00 +27°C° 0 mm 3 m/s 744 mmHg 62%
    10:00 +28°C° 0 mm 3 m/s 744 mmHg 56%
    11:00 +29°C° 0 mm 3 m/s 744 mmHg 50%
    12:00 +29°C° 0 mm 3 m/s 744 mmHg 48%
    13:00 +30°C° 0 mm 2 m/s 743 mmHg 45%
    14:00 +30°C° 0 mm 2 m/s 743 mmHg 43%
    15:00 +30°C° 0 mm 2 m/s 743 mmHg 45%
    16:00 +30°C° 0 mm 2 m/s 743 mmHg 47%
    17:00 +30°C° 0 mm 1 m/s 743 mmHg 50%
    18:00 +28°C° 0 mm 1 m/s 743 mmHg 58%
    19:00 +26°C° 0 mm 1 m/s 743 mmHg 66%
    20:00 +24°C° 0 mm 1 m/s 743 mmHg 75%
    21:00 +23°C° 0 mm 1 m/s 743 mmHg 78%
    22:00 +22°C° 0 mm 1 m/s 743 mmHg 82%
    23:00 +21°C° 0 mm 1 m/s 743 mmHg 86%

    10 Iunie, Miercuri

    Timp Temperatura Precipitaţii Vânt Presiune Umiditate
    00:00 +20°C° 0 mm 1 m/s 743 mmHg 87%
    01:00 +20°C° 0 mm 1 m/s 743 mmHg 89%
    02:00 +19°C° 0 mm 2 m/s 743 mmHg 90%
    03:00 +19°C° 0 mm 2 m/s 743 mmHg 89%
    04:00 +19°C° 0 mm 2 m/s 743 mmHg 89%
    05:00 +20°C° 0 mm 2 m/s 743 mmHg 88%
    06:00 +23°C° 0 mm 2 m/s 743 mmHg 81%
    07:00 +24°C° 0 mm 2 m/s 744 mmHg 74%
    08:00 +26°C° 0 mm 2 m/s 744 mmHg 67%
    09:00 +28°C° 0 mm 2 m/s 744 mmHg 61%
    10:00 +29°C° 0 mm 2 m/s 744 mmHg 55%
    11:00 +30°C° 0 mm 2 m/s 744 mmHg 49%
    12:00 +31°C° 0 mm 2 m/s 743 mmHg 47%
    13:00 +31°C° 0 mm 2 m/s 743 mmHg 45%
    14:00 +32°C° 0 mm 2 m/s 743 mmHg 44%
    15:00 +31°C° 0 mm 2 m/s 743 mmHg 46%
    16:00 +31°C° 0 mm 2 m/s 743 mmHg 49%
    17:00 +31°C° 0 mm 1 m/s 743 mmHg 52%
    18:00 +29°C° 0.2 mm 1 m/s 743 mmHg 60%
    19:00 +26°C° 0.2 mm 1 m/s 743 mmHg 69%
    20:00 +24°C° 0.2 mm 1 m/s 743 mmHg 78%
    21:00 +23°C° 0.1 mm 1 m/s 743 mmHg 82%
    22:00 +22°C° 0.1 mm 1 m/s 743 mmHg 86%
    23:00 +20°C° 0.1 mm 2 m/s 743 mmHg 90%
    Arată mai mult